Chickasha, OK

7:07 AM CST on December 15, 2019 (GMT -0600)
Chickasha Municipal

Weather History for KCHK - November, 2019

Change the Weather History Date:

Saturday, November 16, 2019

  Actual Average Record
Temperature  
Mean Temperature 50 °F -  
Max Temperature 65 °F 60 °F 82 °F (1963)
Min Temperature 34 °F 37 °F 16 °F (1955)
Degree Days  
Heating Degree Days 16    
Moisture  
Dew Point 32 °F    
Average Humidity 58    
Maximum Humidity 82    
Minimum Humidity 30    
Precipitation  
Precipitation 0.00 in - - ()
Sea Level Pressure  
Sea Level Pressure 30.10 in    
Wind  
Wind Speed 9 mph (SE)    
Max Wind Speed 21 mph    
Max Gust Speed 24 mph    
Visibility 10 miles    
Events      
Averages and records for this station are not official NWS values.
T = Trace of Precipitation, MM = Missing Value Source: NWS Daily Summary

Daily Weather History Graph

Daily Weather History Graph

Search for Another Location

Airport or City:

Astronomy

Nov. 16, 2019 Rise Set
Actual Time 7:07 AM CST 5:25 PM CST
Civil Twilight 6:40 AM CST 5:52 PM CST
Nautical Twilight 6:09 AM CST 6:23 PM CST
Astronomical Twilight 5:39 AM CST 6:53 PM CST
Moon 9:03 PM CST (11/16) 10:58 AM CST (11/16)
Length of Visible Light 11h 12m
Length of Day
10h 18m
Waning Gibbous, 82% of the Moon is Illuminated
Nov 16
Waning Gibbous
Nov 19
Last Quarter
Nov 26
New
Dec 4
First Quarter
Dec 11
Full

Hourly Weather History & Observations

Time (CST) Temp. Windchill Dew Point Humidity Pressure Visibility Wind Dir Wind Speed Gust Speed Precip Events Conditions
12:35 AM 37.4 °F 32.8 °F 30.2 °F 75% 30.21 in 10.0 mi SE 5.8 mph - N/A   Clear
12:55 AM 37.2 °F 31.9 °F 30.2 °F 76% 30.21 in 10.0 mi SE 6.9 mph - N/A   Clear
1:15 AM 36.9 °F 32.2 °F 30.0 °F 76% 30.20 in 10.0 mi SE 5.8 mph - N/A   Clear
1:35 AM 37.0 °F 31.6 °F 30.0 °F 76% 30.20 in 10.0 mi SE 6.9 mph - N/A   Clear
1:55 AM 36.7 °F 30.5 °F 30.0 °F 77% 30.20 in 10.0 mi SE 8.1 mph - N/A   Clear
2:15 AM 37.6 °F 32.3 °F 30.0 °F 74% 30.19 in 10.0 mi SE 6.9 mph - N/A   Clear
2:35 AM 37.2 °F 31.9 °F 29.8 °F 75% 30.19 in 10.0 mi SE 6.9 mph - N/A   Clear
2:55 AM 36.3 °F 30.8 °F 29.5 °F 76% 30.19 in 10.0 mi SE 6.9 mph - N/A   Clear
3:15 AM 36.3 °F 31.6 °F 29.5 °F 76% 30.19 in 10.0 mi SE 5.8 mph - N/A   Clear
3:35 AM 36.0 °F 30.3 °F 29.5 °F 77% 30.19 in 10.0 mi SE 6.9 mph - N/A   Clear
3:55 AM 35.6 °F 29.9 °F 29.1 °F 77% 30.18 in 10.0 mi SE 6.9 mph - N/A   Clear
4:15 AM 35.4 °F 30.5 °F 29.5 °F 79% 30.17 in 10.0 mi SE 5.8 mph - N/A   Clear
4:35 AM 35.8 °F 30.9 °F 29.5 °F 78% 30.17 in 10.0 mi ESE 5.8 mph - N/A   Clear
4:55 AM 35.2 °F 30.3 °F 28.9 °F 78% 30.17 in 10.0 mi SE 5.8 mph - N/A   Clear
5:15 AM 34.7 °F 28.8 °F 29.5 °F 81% 30.17 in 10.0 mi SE 6.9 mph - N/A   Clear
5:35 AM 34.5 °F 29.4 °F 29.1 °F 81% 30.17 in 10.0 mi SE 5.8 mph - N/A   Clear
5:55 AM 34.7 °F 28.8 °F 29.3 °F 81% 30.17 in 10.0 mi SE 6.9 mph - N/A   Clear
6:15 AM 34.0 °F 27.2 °F 28.9 °F 82% 30.17 in 10.0 mi SE 8.1 mph - N/A   Clear
6:35 AM 34.5 °F 27.3 °F 29.1 °F 81% 30.17 in 10.0 mi SE 9.2 mph - N/A   Clear
6:55 AM 34.3 °F 27.7 °F 28.8 °F 80% 30.17 in 10.0 mi SE 8.1 mph - N/A   Clear
7:15 AM 34.0 °F 28.0 °F 28.8 °F 81% 30.17 in 10.0 mi ESE 6.9 mph - N/A   Clear
7:35 AM 34.7 °F 28.8 °F 29.1 °F 80% 30.17 in 10.0 mi SE 6.9 mph - N/A   Clear
7:55 AM 36.1 °F 31.4 °F 29.7 °F 77% 30.17 in 10.0 mi SE 5.8 mph - N/A   Clear
8:15 AM 37.6 °F 33.1 °F 30.2 °F 75% 30.18 in 10.0 mi ESE 5.8 mph - N/A   Clear
8:35 AM 39.4 °F 34.5 °F 31.1 °F 72% 30.18 in 10.0 mi ESE 6.9 mph - N/A   Clear
8:55 AM 41.5 °F 36.4 °F 32.0 °F 69% 30.18 in 10.0 mi ESE 8.1 mph - N/A   Clear
9:15 AM 43.3 °F 39.2 °F 33.1 °F 67% 30.18 in 10.0 mi ESE 6.9 mph - N/A   Clear
9:35 AM 45.9 °F 42.3 °F 34.3 °F 64% 30.17 in 10.0 mi SE 6.9 mph - N/A   Clear
9:55 AM 49.3 °F - 35.6 °F 59% 30.17 in 10.0 mi SSE 8.1 mph - N/A   Clear
10:15 AM 54.9 °F - 34.3 °F 46% 30.16 in 10.0 mi SSE 12.7 mph - N/A   Clear
10:35 AM 57.6 °F - 34.3 °F 42% 30.15 in 10.0 mi South 13.8 mph 19.6 mph N/A   Clear
10:55 AM 58.5 °F - 34.3 °F 40% 30.15 in 10.0 mi SSE 15.0 mph - N/A   Clear
11:15 AM 59.2 °F - 34.0 °F 39% 30.14 in 10.0 mi South 16.1 mph 24.2 mph N/A   Clear
11:35 AM 60.1 °F - 34.0 °F 38% 30.13 in 10.0 mi SSE 13.8 mph - N/A   Clear
11:55 AM 61.5 °F - 34.0 °F 36% 30.11 in 10.0 mi South 15.0 mph - N/A   Clear
12:15 PM 62.1 °F - 34.0 °F 35% 30.09 in 10.0 mi South 15.0 mph 23.0 mph N/A   Clear
12:55 PM 62.8 °F - 33.3 °F 33% 30.07 in 10.0 mi South 20.7 mph - N/A   Clear
1:35 PM 64.0 °F - 33.1 °F 31% 30.04 in 10.0 mi SSE 19.6 mph - N/A   Clear
1:55 PM 64.2 °F - 32.9 °F 31% 30.03 in 10.0 mi SSE 17.3 mph 23.0 mph N/A   Clear
2:15 PM 64.8 °F - 32.5 °F 30% 30.02 in 10.0 mi South 19.6 mph 24.2 mph N/A   Clear
2:35 PM 65.3 °F - 33.1 °F 30% 30.00 in 10.0 mi South 15.0 mph - N/A   Clear
3:15 PM 64.0 °F - 32.9 °F 31% 29.99 in 10.0 mi South 13.8 mph - N/A   Clear
3:35 PM 63.5 °F - 33.1 °F 32% 29.98 in 10.0 mi SSE 13.8 mph 21.9 mph N/A   Clear
3:55 PM 62.8 °F - 31.6 °F 31% 29.98 in 10.0 mi South 15.0 mph - N/A   Clear
4:15 PM 61.9 °F - 31.3 °F 32% 29.99 in 10.0 mi SSE 18.4 mph - N/A   Clear
4:35 PM 60.8 °F - 31.6 °F 33% 29.99 in 10.0 mi SSE 13.8 mph - N/A   Clear
5:55 PM 57.2 °F - 32.4 °F 39% 29.99 in 10.0 mi SSE 13.8 mph - N/A   Clear
6:15 PM 56.3 °F - 32.2 °F 40% 29.99 in 10.0 mi SSE 10.4 mph - N/A   Clear
6:55 PM 54.7 °F - 32.9 °F 44% 30.00 in 10.0 mi SE 13.8 mph - N/A   Clear
7:15 PM 53.8 °F - 33.3 °F 46% 30.00 in 10.0 mi SSE 13.8 mph - N/A   Clear
7:35 PM 52.9 °F - 33.1 °F 47% 30.00 in 10.0 mi SSE 13.8 mph - N/A   Clear
7:55 PM 52.5 °F - 33.3 °F 48% 30.00 in 10.0 mi SSE 11.5 mph - N/A   Clear
8:15 PM 52.2 °F - 33.4 °F 49% 30.00 in 10.0 mi SSE 10.4 mph - N/A   Clear
8:35 PM 51.8 °F - 33.4 °F 50% 30.00 in 10.0 mi SSE 11.5 mph - N/A   Clear
8:55 PM 50.9 °F - 33.6 °F 52% 30.00 in 10.0 mi SE 10.4 mph - N/A   Clear
9:15 PM 49.8 °F - 33.8 °F 54% 30.00 in 10.0 mi SE 6.9 mph - N/A   Clear
10:15 PM 47.8 °F - 34.0 °F 59% 30.01 in 10.0 mi SE 8.1 mph - N/A   Clear
10:35 PM 47.7 °F - 34.0 °F 59% 30.01 in 10.0 mi SE 6.9 mph - N/A   Clear
10:55 PM 47.8 °F - 34.2 °F 59% 30.01 in 10.0 mi SE 9.2 mph - N/A   Clear
11:15 PM 46.8 °F - 33.8 °F 61% 30.01 in 10.0 mi ESE 8.1 mph - N/A   Clear
11:35 PM 45.9 °F 42.3 °F 33.8 °F 63% 30.01 in 10.0 mi SE 6.9 mph - N/A   Clear
11:55 PM 45.5 °F 41.8 °F 33.8 °F 64% 30.01 in 10.0 mi SE 6.9 mph - N/A   Clear